Location: Breux
(46.3269°N, 3.2993°E)
Time: 11:05:41
(UTC+00:00)

In-Cosmos 22 Rocket - Pass Details

Date: 09 April 2020
Orbit: 790 x 888 km, 81.2° (Epoch: 03 June)

Event Time Altitude Azimuth Distance (km) Brightness Sun altitude
Rises 20:21:33 0° 349° (N) 3,507 8.1 -18.9°
Reaches altitude 10° 20:24:01 10° 350° (N) 2,565 7.3 -19.2°
Maximum altitude 20:29:54 84° 79° (E) 898 4.2 -20.1°
Enters shadow 20:32:53 31° 166° (SSE) 1,513 5.1 -20.5°
